Time,TemperatureF,DewpointF,PressureIn,WindDirection,WindDirectionDegrees,WindSpeedMPH,WindSpeedGustMPH,Humidity,HourlyPrecipIn,Conditions,Clouds,dailyrainin,SoftwareType,DateUTC
2013-02-03 00:05:00,28.4,21.0,30.62,WSW,242,0.0,-999.0,73,-99.99,,,0.00,weatherlink.com 1.10,2013-02-03 07:05:00,
2013-02-03 00:20:00,27.8,20.0,30.62,WSW,242,0.0,-999.0,73,-99.99,,,0.00,weatherlink.com 1.10,2013-02-03 07:20:00,
2013-02-03 00:35:00,27.6,20.0,30.62,WSW,242,0.0,-999.0,74,-99.99,,,0.00,weatherlink.com 1.10,2013-02-03 07:35:00,
2013-02-03 00:50:00,28.1,20.0,30.62,WSW,242,0.0,-999.0,72,-99.99,,,0.00,weatherlink.com 1.10,2013-02-03 07:50:00,
2013-02-03 01:05:00,27.6,21.0,30.62,WSW,242,0.0,-999.0,75,-99.99,,,0.00,weatherlink.com 1.10,2013-02-03 08:05:00,
2013-02-03 01:20:00,27.3,19.0,30.62,WSW,242,0.0,-999.0,72,-99.99,,,0.00,weatherlink.com 1.10,2013-02-03 08:20:00,
2013-02-03 01:35:00,27.8,20.0,30.62,WSW,242,0.0,-999.0,73,-99.99,,,0.00,weatherlink.com 1.10,2013-02-03 08:35:00,
2013-02-03 01:50:00,27.8,20.0,30.62,WSW,242,0.0,-999.0,73,-99.99,,,0.00,weatherlink.com 1.10,2013-02-03 08:50:00,
2013-02-03 02:05:00,27.2,20.0,30.66,WSW,242,0.0,-999.0,74,-99.99,,,0.00,weatherlink.com 1.10,2013-02-03 09:05:00,
2013-02-03 02:20:00,27.8,19.0,30.64,WSW,242,0.0,-999.0,69,-99.99,,,0.00,weatherlink.com 1.10,2013-02-03 09:20:00,
2013-02-03 02:35:00,28.5,18.0,30.64,WSW,242,0.0,-999.0,65,-99.99,,,0.00,weatherlink.com 1.10,2013-02-03 09:35:00,
2013-02-03 02:50:00,28.2,19.0,30.64,WSW,242,0.0,-999.0,68,-99.99,,,0.00,weatherlink.com 1.10,2013-02-03 09:50:00,
2013-02-03 03:05:00,27.8,18.0,30.61,WSW,242,0.0,-999.0,66,-99.99,,,0.00,weatherlink.com 1.10,2013-02-03 10:05:00,
2013-02-03 03:20:00,27.9,16.0,30.60,WSW,242,0.0,-999.0,61,-99.99,,,0.00,weatherlink.com 1.10,2013-02-03 10:20:00,
2013-02-03 03:35:00,28.1,16.0,30.59,WSW,242,0.0,-999.0,60,-99.99,,,0.00,weatherlink.com 1.10,2013-02-03 10:35:00,
2013-02-03 03:50:00,27.5,16.0,30.59,WSW,242,0.0,-999.0,62,-99.99,,,0.00,weatherlink.com 1.10,2013-02-03 10:50:00,
2013-02-03 04:05:00,27.2,18.0,30.61,WSW,242,0.0,-999.0,68,-99.99,,,0.00,weatherlink.com 1.10,2013-02-03 11:05:00,
2013-02-03 04:20:00,26.7,17.0,30.62,WSW,242,0.0,-999.0,67,-99.99,,,0.00,weatherlink.com 1.10,2013-02-03 11:20:00,
2013-02-03 04:35:00,27.2,16.0,30.62,WSW,242,0.0,-999.0,64,-99.99,,,0.00,weatherlink.com 1.10,2013-02-03 11:35:00,
2013-02-03 04:50:00,26.6,15.0,30.61,WSW,242,0.0,-999.0,63,-99.99,,,0.00,weatherlink.com 1.10,2013-02-03 11:50:00,
2013-02-03 05:05:00,26.4,17.0,30.66,WSW,242,0.0,-999.0,67,-99.99,,,0.00,weatherlink.com 1.10,2013-02-03 12:05:00,
2013-02-03 05:20:00,26.0,16.0,30.66,WSW,242,0.0,-999.0,67,-99.99,,,0.00,weatherlink.com 1.10,2013-02-03 12:20:00,
2013-02-03 05:35:00,26.7,16.0,30.64,WSW,242,0.0,-999.0,65,-99.99,,,0.00,weatherlink.com 1.10,2013-02-03 12:35:00,
2013-02-03 05:50:00,26.3,16.0,30.65,WSW,242,1.0,-999.0,64,-99.99,,,0.00,weatherlink.com 1.10,2013-02-03 12:50:00,
2013-02-03 06:05:00,26.3,16.0,30.66,WSW,242,0.0,-999.0,65,-99.99,,,0.00,weatherlink.com 1.10,2013-02-03 13:05:00,
2013-02-03 06:20:00,26.1,14.0,30.66,WSW,242,0.0,-999.0,60,-99.99,,,0.00,weatherlink.com 1.10,2013-02-03 13:20:00,
2013-02-03 06:35:00,26.4,16.0,30.66,WSW,242,0.0,-999.0,65,-99.99,,,0.00,weatherlink.com 1.10,2013-02-03 13:35:00,
2013-02-03 06:50:00,26.9,14.0,30.63,WSW,242,0.0,-999.0,58,-99.99,,,0.00,weatherlink.com 1.10,2013-02-03 13:50:00,
2013-02-03 07:05:00,27.0,15.0,30.65,WSW,242,0.0,-999.0,61,-99.99,,,0.00,weatherlink.com 1.10,2013-02-03 14:05:00,
2013-02-03 07:20:00,27.2,16.0,30.64,WSW,242,0.0,-999.0,64,-99.99,,,0.00,weatherlink.com 1.10,2013-02-03 14:20:00,
2013-02-03 07:35:00,26.9,14.0,30.64,WSW,242,0.0,-999.0,59,-99.99,,,0.00,weatherlink.com 1.10,2013-02-03 14:35:00,
2013-02-03 07:50:00,28.7,15.0,30.62,WSW,242,0.0,-999.0,56,-99.99,,,0.00,weatherlink.com 1.10,2013-02-03 14:50:00,
2013-02-03 08:05:00,28.5,15.0,30.62,WSW,242,0.0,-999.0,57,-99.99,,,0.00,weatherlink.com 1.10,2013-02-03 15:05:00,
2013-02-03 08:20:00,29.1,15.0,30.62,WSW,242,0.0,-999.0,55,-99.99,,,0.00,weatherlink.com 1.10,2013-02-03 15:20:00,
2013-02-03 08:35:00,29.5,15.0,30.60,WSW,242,0.0,-999.0,56,-99.99,,,0.00,weatherlink.com 1.10,2013-02-03 15:35:00,
2013-02-03 08:50:00,30.3,15.0,30.59,WSW,242,0.0,-999.0,54,-99.99,,,0.00,weatherlink.com 1.10,2013-02-03 15:50:00,
2013-02-03 09:05:00,31.6,14.0,30.57,WSW,238,0.0,-999.0,48,-99.99,,,0.00,weatherlink.com 1.10,2013-02-03 16:05:00,
2013-02-03 09:20:00,33.1,10.0,30.57,WSW,238,0.0,-999.0,38,-99.99,,,0.00,weatherlink.com 1.10,2013-02-03 16:20:00,
2013-02-03 09:35:00,33.5,7.0,30.57,WSW,238,0.0,-999.0,33,-99.99,,,0.00,weatherlink.com 1.10,2013-02-03 16:35:00,
2013-02-03 09:50:00,33.8,9.0,30.56,SW,223,0.0,-999.0,36,-99.99,,,0.00,weatherlink.com 1.10,2013-02-03 16:50:00,
2013-02-03 10:05:00,33.7,10.0,30.58,SW,217,0.0,-999.0,37,-99.99,,,0.00,weatherlink.com 1.10,2013-02-03 17:05:00,
2013-02-03 10:20:00,34.9,8.0,30.55,SW,217,0.0,-999.0,33,-99.99,,,0.00,weatherlink.com 1.10,2013-02-03 17:20:00,
2013-02-03 10:35:00,35.2,12.0,30.53,East,98,1.0,-999.0,38,-99.99,,,0.00,weatherlink.com 1.10,2013-02-03 17:35:00,
2013-02-03 10:50:00,35.9,13.0,30.52,East,95,0.0,-999.0,39,-99.99,,,0.00,weatherlink.com 1.10,2013-02-03 17:50:00,
2013-02-03 11:05:00,37.2,10.0,30.52,East,95,1.0,-999.0,32,-99.99,,,0.00,weatherlink.com 1.10,2013-02-03 18:05:00,
2013-02-03 11:20:00,35.9,14.0,30.53,SW,235,3.0,-999.0,40,-99.99,,,0.00,weatherlink.com 1.10,2013-02-03 18:20:00,
2013-02-03 11:51:00,37.2,13.0,30.52,SW,235,0.0,-999.0,37,-99.99,,,0.00,weatherlink.com 1.10,2013-02-03 18:51:00,
2013-02-03 12:05:00,37.3,12.0,30.52,SW,231,0.0,-999.0,36,-99.99,,,0.00,weatherlink.com 1.10,2013-02-03 19:05:00,
2013-02-03 12:20:00,37.5,14.0,30.49,SW,231,2.0,-999.0,39,-99.99,,,0.00,weatherlink.com 1.10,2013-02-03 19:20:00,
2013-02-03 12:36:00,38.0,14.0,30.48,South,172,0.0,-999.0,37,-99.99,,,0.00,weatherlink.com 1.10,2013-02-03 19:36:00,
2013-02-03 12:50:00,38.6,17.0,30.48,South,172,0.0,-999.0,41,-99.99,,,0.00,weatherlink.com 1.10,2013-02-03 19:50:00,
2013-02-03 13:05:00,38.8,16.0,30.47,South,172,0.0,-999.0,39,-99.99,,,0.00,weatherlink.com 1.10,2013-02-03 20:05:00,
2013-02-03 13:20:00,38.5,18.0,30.47,South,172,1.0,-999.0,43,-99.99,,,0.00,weatherlink.com 1.10,2013-02-03 20:20:00,
2013-02-03 13:35:00,37.6,16.0,30.46,East,84,0.0,-999.0,41,-99.99,,,0.00,weatherlink.com 1.10,2013-02-03 20:35:00,
2013-02-03 13:50:00,37.6,24.0,30.47,ENE,63,0.0,-999.0,58,-99.99,,,0.00,weatherlink.com 1.10,2013-02-03 20:50:00,
2013-02-03 14:05:00,37.6,25.0,30.44,East,81,1.0,-999.0,62,-99.99,,,0.00,weatherlink.com 1.10,2013-02-03 21:05:00,
2013-02-03 14:20:00,38.0,25.0,30.43,East,81,0.0,-999.0,61,-99.99,,,0.00,weatherlink.com 1.10,2013-02-03 21:20:00,
2013-02-03 14:36:00,38.3,25.0,30.42,East,81,0.0,-999.0,60,-99.99,,,0.00,weatherlink.com 1.10,2013-02-03 21:36:00,
2013-02-03 14:50:00,38.6,26.0,30.41,East,81,1.0,-999.0,60,-99.99,,,0.00,weatherlink.com 1.10,2013-02-03 21:50:00,
2013-02-03 15:05:00,38.2,26.0,30.40,SE,127,0.0,-999.0,63,-99.99,,,0.00,weatherlink.com 1.10,2013-02-03 22:05:00,
2013-02-03 15:20:00,38.9,27.0,30.39,ENE,77,0.0,-999.0,62,-99.99,,,0.00,weatherlink.com 1.10,2013-02-03 22:20:00,
2013-02-03 15:35:00,38.9,26.0,30.39,East,79,0.0,-999.0,60,-99.99,,,0.00,weatherlink.com 1.10,2013-02-03 22:35:00,
2013-02-03 15:50:00,38.8,27.0,30.39,East,80,2.0,-999.0,62,-99.99,,,0.00,weatherlink.com 1.10,2013-02-03 22:50:00,
2013-02-03 16:06:00,39.2,26.0,30.39,East,80,0.0,-999.0,60,-99.99,,,0.00,weatherlink.com 1.10,2013-02-03 23:06:00,
2013-02-03 16:21:00,39.8,26.0,30.38,East,80,0.0,-999.0,57,-99.99,,,0.00,weatherlink.com 1.10,2013-02-03 23:21:00,
2013-02-03 16:35:00,39.9,26.0,30.38,East,80,0.0,-999.0,59,-99.99,,,0.00,weatherlink.com 1.10,2013-02-03 23:35:00,
2013-02-03 16:50:00,38.5,28.0,30.38,East,80,0.0,-999.0,66,-99.99,,,0.00,weatherlink.com 1.10,2013-02-03 23:50:00,
2013-02-03 17:06:00,37.3,29.0,30.39,East,80,0.0,-999.0,71,-99.99,,,0.00,weatherlink.com 1.10,2013-02-04 00:06:00,
2013-02-03 17:20:00,36.8,29.0,30.40,East,80,0.0,-999.0,73,-99.99,,,0.00,weatherlink.com 1.10,2013-02-04 00:20:00,
2013-02-03 17:35:00,36.6,29.0,30.41,East,80,0.0,-999.0,73,-99.99,,,0.00,weatherlink.com 1.10,2013-02-04 00:35:00,
2013-02-03 17:50:00,36.0,28.0,30.41,East,80,0.0,-999.0,74,-99.99,,,0.00,weatherlink.com 1.10,2013-02-04 00:50:00,
2013-02-03 18:05:00,35.3,28.0,30.40,East,80,0.0,-999.0,74,-99.99,,,0.00,weatherlink.com 1.10,2013-02-04 01:05:00,
2013-02-03 18:20:00,34.9,27.0,30.40,East,80,0.0,-999.0,74,-99.99,,,0.00,weatherlink.com 1.10,2013-02-04 01:20:00,
2013-02-03 18:35:00,34.9,27.0,30.40,East,80,0.0,-999.0,73,-99.99,,,0.00,weatherlink.com 1.10,2013-02-04 01:35:00,
2013-02-03 18:51:00,34.4,28.0,30.42,East,80,0.0,-999.0,76,-99.99,,,0.00,weatherlink.com 1.10,2013-02-04 01:51:00,
2013-02-03 19:05:00,34.3,26.0,30.39,East,80,0.0,-999.0,73,-99.99,,,0.00,weatherlink.com 1.10,2013-02-04 02:05:00,
2013-02-03 19:21:00,34.1,25.0,30.39,East,80,0.0,-999.0,69,-99.99,,,0.00,weatherlink.com 1.10,2013-02-04 02:21:00,
2013-02-03 19:35:00,33.5,25.0,30.39,East,80,0.0,-999.0,71,-99.99,,,0.00,weatherlink.com 1.10,2013-02-04 02:35:00,
2013-02-03 19:50:00,32.2,24.0,30.40,East,80,0.0,-999.0,73,-99.99,,,0.00,weatherlink.com 1.10,2013-02-04 02:50:00,
2013-02-03 20:06:00,31.3,25.0,30.41,East,80,0.0,-999.0,77,-99.99,,,0.00,weatherlink.com 1.10,2013-02-04 03:06:00,
2013-02-03 20:21:00,31.2,25.0,30.42,East,80,0.0,-999.0,78,-99.99,,,0.00,weatherlink.com 1.10,2013-02-04 03:21:00,
2013-02-03 20:35:00,30.7,25.0,30.43,East,80,0.0,-999.0,79,-99.99,,,0.00,weatherlink.com 1.10,2013-02-04 03:35:00,
2013-02-03 20:50:00,30.3,25.0,30.42,East,80,0.0,-999.0,80,-99.99,,,0.00,weatherlink.com 1.10,2013-02-04 03:50:00,
2013-02-03 21:05:00,30.1,24.0,30.39,East,80,0.0,-999.0,79,-99.99,,,0.00,weatherlink.com 1.10,2013-02-04 04:05:00,
2013-02-03 21:20:00,29.8,24.0,30.39,East,80,0.0,-999.0,80,-99.99,,,0.00,weatherlink.com 1.10,2013-02-04 04:20:00,
2013-02-03 21:36:00,29.5,24.0,30.39,East,80,0.0,-999.0,81,-99.99,,,0.00,weatherlink.com 1.10,2013-02-04 04:36:00,
2013-02-03 21:51:00,29.3,24.0,30.41,East,80,0.0,-999.0,81,-99.99,,,0.00,weatherlink.com 1.10,2013-02-04 04:51:00,
2013-02-03 22:06:00,29.0,24.0,30.40,East,80,0.0,-999.0,81,-99.99,,,0.00,weatherlink.com 1.10,2013-02-04 05:06:00,
2013-02-03 22:20:00,28.5,24.0,30.40,East,80,0.0,-999.0,82,-99.99,,,0.00,weatherlink.com 1.10,2013-02-04 05:20:00,
2013-02-03 22:36:00,28.2,24.0,30.40,East,80,0.0,-999.0,83,-99.99,,,0.00,weatherlink.com 1.10,2013-02-04 05:36:00,
2013-02-03 22:50:00,27.9,23.0,30.40,East,80,0.0,-999.0,83,-99.99,,,0.00,weatherlink.com 1.10,2013-02-04 05:50:00,
2013-02-03 23:05:00,27.8,24.0,30.40,East,80,0.0,-999.0,84,-99.99,,,0.00,weatherlink.com 1.10,2013-02-04 06:05:00,
2013-02-03 23:20:00,27.5,23.0,30.41,East,80,0.0,-999.0,83,-99.99,,,0.00,weatherlink.com 1.10,2013-02-04 06:20:00,
2013-02-03 23:35:00,27.2,23.0,30.40,East,80,0.0,-999.0,83,-99.99,,,0.00,weatherlink.com 1.10,2013-02-04 06:35:00,
2013-02-03 23:50:00,27.0,23.0,30.40,East,80,0.0,-999.0,83,-99.99,,,0.00,weatherlink.com 1.10,2013-02-04 06:50:00,